PRIVATE WETTERSTATION BILLIGHEIM-ALLFELD                       ZURCK
Wetterdaten: Montag, 12.12.2016
Datum Zeit Temp. A. Temp. A. min Temp. A. max Feuchte A. Luftdruck Regen Wind Richtung Richtung Sonnenschein ET Solar Taupunkt Windchill Windben Empfang
12.12.2016 00:00 4,7 C 4,7 C 4,7 C 92 % 1023,3 hPa 0,0 l/m 4,8 km/h (1 Bft) W-SW 247 0 min 0,000 mm 0 W/m 3,5 C 4,7 C 14,5 km/h (3 Bft) 100 %
12.12.2016 00:10 4,6 C 4,6 C 4,7 C 92 % 1023,2 hPa 0,0 l/m 3,2 km/h (1 Bft) W-SW 247 0 min 0,000 mm 0 W/m 3,4 C 4,6 C 17,7 km/h (3 Bft) 100 %
12.12.2016 00:20 4,6 C 4,6 C 4,7 C 92 % 1023,1 hPa 0,0 l/m 3,2 km/h (1 Bft) SW 225 0 min 0,000 mm 0 W/m 3,4 C 4,6 C 12,9 km/h (3 Bft) 99 %
12.12.2016 00:30 4,5 C 4,5 C 4,6 C 92 % 1023,3 hPa 0,0 l/m 1,6 km/h (1 Bft) SW 225 0 min 0,000 mm 0 W/m 3,3 C 4,5 C 8,0 km/h (2 Bft) 100 %
12.12.2016 00:40 4,5 C 4,4 C 4,5 C 92 % 1023,3 hPa 0,0 l/m 1,6 km/h (1 Bft) W 270 0 min 0,000 mm 0 W/m 3,3 C 4,5 C 8,0 km/h (2 Bft) 100 %
12.12.2016 00:50 4,5 C 4,5 C 4,5 C 92 % 1023,2 hPa 0,0 l/m 4,8 km/h (1 Bft) W 270 0 min 0,000 mm 0 W/m 3,3 C 4,5 C 14,5 km/h (3 Bft) 100 %
12.12.2016 01:00 4,5 C 4,5 C 4,5 C 92 % 1023,1 hPa 0,0 l/m 4,8 km/h (1 Bft) W-SW 247 0 min 0,000 mm 0 W/m 3,3 C 4,5 C 11,3 km/h (2 Bft) 100 %
12.12.2016 01:10 4,5 C 4,5 C 4,5 C 92 % 1023,3 hPa 0,0 l/m 8,0 km/h (2 Bft) W 270 0 min 0,000 mm 0 W/m 3,3 C 3,1 C 17,7 km/h (3 Bft) 98 %
12.12.2016 01:20 4,5 C 4,5 C 4,5 C 92 % 1023,2 hPa 0,0 l/m 4,8 km/h (1 Bft) W 270 0 min 0,000 mm 0 W/m 3,3 C 4,5 C 16,1 km/h (3 Bft) 97 %
12.12.2016 01:30 4,5 C 4,5 C 4,6 C 92 % 1023,2 hPa 0,0 l/m 6,4 km/h (2 Bft) W 270 0 min 0,000 mm 0 W/m 3,3 C 4,5 C 17,7 km/h (3 Bft) 97 %
12.12.2016 01:40 4,4 C 4,4 C 4,5 C 92 % 1023,2 hPa 0,0 l/m 1,6 km/h (1 Bft) W-SW 247 0 min 0,000 mm 0 W/m 3,2 C 4,4 C 11,3 km/h (2 Bft) 98 %
12.12.2016 01:50 4,4 C 4,4 C 4,4 C 92 % 1023,2 hPa 0,2 l/m 4,8 km/h (1 Bft) W-SW 247 0 min 0,000 mm 0 W/m 3,2 C 4,4 C 14,5 km/h (3 Bft) 98 %
12.12.2016 02:00 4,3 C 4,3 C 4,4 C 92 % 1023,2 hPa 0,0 l/m 1,6 km/h (1 Bft) W 270 0 min 0,000 mm 0 W/m 3,1 C 4,3 C 14,5 km/h (3 Bft) 98 %
12.12.2016 02:10 4,3 C 4,3 C 4,3 C 92 % 1023,2 hPa 0,0 l/m 1,6 km/h (1 Bft) W 270 0 min 0,000 mm 0 W/m 3,1 C 4,3 C 8,0 km/h (2 Bft) 98 %
12.12.2016 02:20 4,2 C 4,2 C 4,3 C 92 % 1023,3 hPa 0,0 l/m 3,2 km/h (1 Bft) W 270 0 min 0,000 mm 0 W/m 3,0 C 4,2 C 22,5 km/h (4 Bft) 98 %
12.12.2016 02:30 4,2 C 4,2 C 4,2 C 92 % 1023,3 hPa 0,0 l/m 4,8 km/h (1 Bft) W-NW 292 0 min 0,000 mm 0 W/m 3,0 C 4,2 C 11,3 km/h (2 Bft) 98 %
12.12.2016 02:40 4,2 C 4,1 C 4,2 C 92 % 1023,5 hPa 0,0 l/m 3,2 km/h (1 Bft) W 270 0 min 0,000 mm 0 W/m 3,0 C 4,2 C 8,0 km/h (2 Bft) 97 %
12.12.2016 02:50 4,2 C 4,1 C 4,2 C 92 % 1023,4 hPa 0,0 l/m 1,6 km/h (1 Bft) W 270 0 min 0,000 mm 0 W/m 3,0 C 4,2 C 6,4 km/h (2 Bft) 98 %
12.12.2016 03:00 4,3 C 4,2 C 4,3 C 92 % 1023,6 hPa 0,0 l/m 4,8 km/h (1 Bft) W-SW 247 0 min 0,000 mm 0 W/m 3,1 C 4,3 C 14,5 km/h (3 Bft) 97 %
12.12.2016 03:10 4,3 C 4,3 C 4,3 C 92 % 1023,5 hPa 0,0 l/m 4,8 km/h (1 Bft) W 270 0 min 0,000 mm 0 W/m 3,1 C 4,3 C 14,5 km/h (3 Bft) 98 %
12.12.2016 03:20 4,4 C 4,3 C 4,4 C 92 % 1023,5 hPa 0,0 l/m 8,0 km/h (2 Bft) W 270 0 min 0,000 mm 0 W/m 3,2 C 3,0 C 17,7 km/h (3 Bft) 98 %
12.12.2016 03:30 4,4 C 4,4 C 4,4 C 92 % 1023,5 hPa 0,0 l/m 6,4 km/h (2 Bft) W 270 0 min 0,000 mm 0 W/m 3,2 C 4,4 C 20,9 km/h (4 Bft) 98 %
12.12.2016 03:40 4,5 C 4,4 C 4,5 C 92 % 1023,6 hPa 0,0 l/m 4,8 km/h (1 Bft) W 270 0 min 0,000 mm 0 W/m 3,3 C 4,5 C 14,5 km/h (3 Bft) 97 %
12.12.2016 03:50 4,5 C 4,4 C 4,5 C 92 % 1023,6 hPa 0,0 l/m 4,8 km/h (1 Bft) W 270 0 min 0,000 mm 0 W/m 3,3 C 4,5 C 17,7 km/h (3 Bft) 97 %
12.12.2016 04:00 4,4 C 4,4 C 4,5 C 92 % 1023,6 hPa 0,0 l/m 6,4 km/h (2 Bft) W 270 0 min 0,000 mm 0 W/m 3,2 C 4,4 C 19,3 km/h (3 Bft) 98 %
12.12.2016 04:10 4,4 C 4,4 C 4,5 C 92 % 1023,7 hPa 0,0 l/m 6,4 km/h (2 Bft) W 270 0 min 0,000 mm 0 W/m 3,2 C 4,4 C 16,1 km/h (3 Bft) 88 %
12.12.2016 04:20 4,4 C 4,4 C 4,5 C 92 % 1023,7 hPa 0,0 l/m 6,4 km/h (2 Bft) W 270 0 min 0,000 mm 0 W/m 3,2 C 4,4 C 16,1 km/h (3 Bft) 98 %
12.12.2016 04:30 4,5 C 4,4 C 4,5 C 92 % 1023,7 hPa 0,0 l/m 6,4 km/h (2 Bft) W 270 0 min 0,000 mm 0 W/m 3,3 C 4,5 C 17,7 km/h (3 Bft) 98 %
12.12.2016 04:40 4,4 C 4,4 C 4,5 C 92 % 1023,6 hPa 0,0 l/m 4,8 km/h (1 Bft) W 270 0 min 0,000 mm 0 W/m 3,2 C 4,4 C 14,5 km/h (3 Bft) 97 %
12.12.2016 04:50 4,4 C 4,4 C 4,5 C 92 % 1023,7 hPa 0,2 l/m 4,8 km/h (1 Bft) W 270 0 min 0,000 mm 0 W/m 3,2 C 4,4 C 11,3 km/h (2 Bft) 97 %
12.12.2016 05:00 4,4 C 4,4 C 4,4 C 92 % 1023,6 hPa 0,0 l/m 4,8 km/h (1 Bft) W-NW 292 0 min 0,000 mm 0 W/m 3,2 C 4,4 C 11,3 km/h (2 Bft) 96 %
12.12.2016 05:10 4,4 C 4,4 C 4,4 C 92 % 1023,8 hPa 0,0 l/m 3,2 km/h (1 Bft) W 270 0 min 0,000 mm 0 W/m 3,2 C 4,4 C 8,0 km/h (2 Bft) 98 %
12.12.2016 05:20 4,3 C 4,3 C 4,4 C 92 % 1023,9 hPa 0,2 l/m 0,0 km/h (0 Bft) W 270 0 min 0,000 mm 0 W/m 3,1 C 4,3 C 6,4 km/h (2 Bft) 97 %
12.12.2016 05:30 4,3 C 4,3 C 4,4 C 92 % 1023,9 hPa 0,0 l/m 0,0 km/h (0 Bft) W-SW 247 0 min 0,000 mm 0 W/m 3,1 C 4,3 C 8,0 km/h (2 Bft) 98 %
12.12.2016 05:40 4,4 C 4,3 C 4,4 C 92 % 1023,9 hPa 0,0 l/m 4,8 km/h (1 Bft) W 270 0 min 0,000 mm 0 W/m 3,2 C 4,4 C 14,5 km/h (3 Bft) 98 %
12.12.2016 05:50 4,3 C 4,3 C 4,4 C 92 % 1024,0 hPa 0,0 l/m 4,8 km/h (1 Bft) W 270 0 min 0,000 mm 0 W/m 3,1 C 4,3 C 16,1 km/h (3 Bft) 97 %
12.12.2016 06:00 4,3 C 4,3 C 4,4 C 92 % 1024,0 hPa 0,0 l/m 4,8 km/h (1 Bft) W 270 0 min 0,000 mm 0 W/m 3,1 C 4,3 C 11,3 km/h (2 Bft) 98 %
12.12.2016 06:10 4,3 C 4,3 C 4,3 C 92 % 1023,9 hPa 0,0 l/m 6,4 km/h (2 Bft) W 270 0 min 0,000 mm 0 W/m 3,1 C 4,3 C 16,1 km/h (3 Bft) 87 %
12.12.2016 06:20 4,3 C 4,3 C 4,3 C 92 % 1023,9 hPa 0,0 l/m 8,0 km/h (2 Bft) W-NW 292 0 min 0,000 mm 0 W/m 3,1 C 2,9 C 16,1 km/h (3 Bft) 97 %
12.12.2016 06:30 4,3 C 4,3 C 4,3 C 92 % 1024,0 hPa 0,0 l/m 3,2 km/h (1 Bft) W-NW 292 0 min 0,000 mm 0 W/m 3,1 C 4,3 C 14,5 km/h (3 Bft) 97 %
12.12.2016 06:40 4,3 C 4,3 C 4,3 C 92 % 1024,1 hPa 0,0 l/m 3,2 km/h (1 Bft) W 270 0 min 0,000 mm 0 W/m 3,1 C 4,3 C 9,7 km/h (2 Bft) 98 %
12.12.2016 06:50 4,2 C 4,2 C 4,3 C 92 % 1024,2 hPa 0,2 l/m 1,6 km/h (1 Bft) W-NW 292 0 min 0,000 mm 0 W/m 3,0 C 4,2 C 9,7 km/h (2 Bft) 98 %
12.12.2016 07:00 4,2 C 4,2 C 4,2 C 92 % 1024,3 hPa 0,0 l/m 4,8 km/h (1 Bft) W 270 0 min 0,000 mm 0 W/m 3,0 C 4,2 C 11,3 km/h (2 Bft) 96 %
12.12.2016 07:10 4,2 C 4,2 C 4,2 C 92 % 1024,3 hPa 0,0 l/m 1,6 km/h (1 Bft) W-NW 292 0 min 0,000 mm 0 W/m 3,0 C 4,2 C 11,3 km/h (2 Bft) 97 %
12.12.2016 07:20 4,2 C 4,2 C 4,2 C 92 % 1024,5 hPa 0,0 l/m 1,6 km/h (1 Bft) NW 315 0 min 0,000 mm 0 W/m 3,0 C 4,2 C 8,0 km/h (2 Bft) 97 %
12.12.2016 07:30 4,2 C 4,2 C 4,2 C 92 % 1024,6 hPa 0,0 l/m 0,0 km/h (0 Bft) W 270 0 min 0,000 mm 0 W/m 3,0 C 4,2 C 1,6 km/h (1 Bft) 98 %
12.12.2016 07:40 4,2 C 4,2 C 4,2 C 92 % 1024,8 hPa 0,0 l/m 0,0 km/h (0 Bft) W 270 0 min 0,000 mm 0 W/m 3,0 C 4,2 C 6,4 km/h (2 Bft) 97 %
12.12.2016 07:50 4,2 C 4,2 C 4,2 C 92 % 1024,8 hPa 0,0 l/m 0,0 km/h (0 Bft) NW 315 0 min 0,000 mm 0 W/m 3,0 C 4,2 C 6,4 km/h (2 Bft) 98 %
12.12.2016 08:00 4,2 C 4,2 C 4,2 C 92 % 1025,0 hPa 0,0 l/m 0,0 km/h (0 Bft) NW 315 0 min 0,000 mm 0 W/m 3,0 C 4,2 C 3,2 km/h (1 Bft) 96 %
12.12.2016 08:10 4,2 C 4,2 C 4,2 C 92 % 1025,0 hPa 0,0 l/m 0,0 km/h (0 Bft) N 0 0 min 0,000 mm 0 W/m 3,0 C 4,2 C 0,0 km/h (0 Bft) 88 %
12.12.2016 08:20 4,2 C 4,2 C 4,2 C 92 % 1025,3 hPa 0,0 l/m 0,0 km/h (0 Bft) W 270 0 min 0,000 mm 0 W/m 3,0 C 4,2 C 1,6 km/h (1 Bft) 98 %
12.12.2016 08:30 4,2 C 4,2 C 4,2 C 92 % 1025,3 hPa 0,0 l/m 1,6 km/h (1 Bft) SW 225 0 min 0,000 mm 0 W/m 3,0 C 4,2 C 9,7 km/h (2 Bft) 97 %
12.12.2016 08:40 4,2 C 4,1 C 4,2 C 92 % 1025,3 hPa 0,0 l/m 0,0 km/h (0 Bft) SW 225 0 min 0,000 mm 0 W/m 3,0 C 4,2 C 1,6 km/h (1 Bft) 98 %
12.12.2016 08:50 4,2 C 4,1 C 4,2 C 92 % 1025,5 hPa 0,0 l/m 0,0 km/h (0 Bft) N 0 0 min 0,000 mm 0 W/m 3,0 C 4,2 C 0,0 km/h (0 Bft) 97 %
12.12.2016 09:00 4,2 C 4,1 C 4,2 C 92 % 1025,7 hPa 0,0 l/m 1,6 km/h (1 Bft) W-SW 247 0 min 0,000 mm 5 W/m 3,0 C 4,2 C 6,4 km/h (2 Bft) 98 %
12.12.2016 09:10 4,2 C 4,2 C 4,2 C 92 % 1025,8 hPa 0,0 l/m 0,0 km/h (0 Bft) W-SW 247 0 min 0,000 mm 9 W/m 3,0 C 4,2 C 8,0 km/h (2 Bft) 97 %
12.12.2016 09:20 4,2 C 4,2 C 4,2 C 92 % 1025,9 hPa 0,0 l/m 1,6 km/h (1 Bft) W-SW 247 0 min 0,000 mm 9 W/m 3,0 C 4,2 C 9,7 km/h (2 Bft) 98 %
12.12.2016 09:30 4,2 C 4,2 C 4,3 C 92 % 1026,0 hPa 0,0 l/m 0,0 km/h (0 Bft) W-SW 247 0 min 0,000 mm 12 W/m 3,0 C 4,2 C 1,6 km/h (1 Bft) 98 %
12.12.2016 09:40 4,3 C 4,2 C 4,3 C 92 % 1026,0 hPa 0,0 l/m 1,6 km/h (1 Bft) W-NW 292 0 min 0,000 mm 16 W/m 3,1 C 4,3 C 8,0 km/h (2 Bft) 97 %
12.12.2016 09:50 4,3 C 4,3 C 4,3 C 92 % 1026,2 hPa 0,0 l/m 0,0 km/h (0 Bft) W 270 0 min 0,000 mm 18 W/m 3,1 C 4,3 C 1,6 km/h (1 Bft) 98 %
12.12.2016 10:00 4,3 C 4,3 C 4,3 C 92 % 1026,4 hPa 0,0 l/m 1,6 km/h (1 Bft) W 270 0 min 0,000 mm 21 W/m 3,1 C 4,3 C 11,3 km/h (2 Bft) 97 %
12.12.2016 10:10 4,4 C 4,3 C 4,4 C 92 % 1026,7 hPa 0,0 l/m 3,2 km/h (1 Bft) W-NW 292 0 min 0,000 mm 23 W/m 3,2 C 4,4 C 9,7 km/h (2 Bft) 80 %
12.12.2016 10:20 4,4 C 4,4 C 4,4 C 92 % 1026,8 hPa 0,0 l/m 3,2 km/h (1 Bft) W-NW 292 0 min 0,000 mm 25 W/m 3,2 C 4,4 C 9,7 km/h (2 Bft) 97 %
12.12.2016 10:30 4,5 C 4,4 C 4,5 C 92 % 1026,8 hPa 0,0 l/m 1,6 km/h (1 Bft) W 270 0 min 0,000 mm 40 W/m 3,3 C 4,5 C 6,4 km/h (2 Bft) 98 %
12.12.2016 10:40 4,6 C 4,5 C 4,6 C 92 % 1026,9 hPa 0,0 l/m 3,2 km/h (1 Bft) W-NW 292 0 min 0,000 mm 40 W/m 3,4 C 4,6 C 9,7 km/h (2 Bft) 98 %
12.12.2016 10:50 4,7 C 4,6 C 4,7 C 92 % 1026,9 hPa 0,0 l/m 1,6 km/h (1 Bft) W-NW 292 0 min 0,000 mm 62 W/m 3,5 C 4,7 C 8,0 km/h (2 Bft) 97 %
12.12.2016 11:00 4,8 C 4,7 C 4,8 C 92 % 1026,8 hPa 0,0 l/m 1,6 km/h (1 Bft) W 270 0 min 0,025 mm 58 W/m 3,6 C 4,8 C 6,4 km/h (2 Bft) 98 %
12.12.2016 11:10 4,9 C 4,8 C 4,9 C 92 % 1026,8 hPa 0,0 l/m 0,0 km/h (0 Bft) W-NW 292 0 min 0,000 mm 67 W/m 3,7 C 4,9 C 1,6 km/h (1 Bft) 99 %
12.12.2016 11:20 5,0 C 4,9 C 5,0 C 92 % 1026,7 hPa 0,0 l/m 0,0 km/h (0 Bft) W-NW 292 0 min 0,000 mm 65 W/m 3,8 C 5,0 C 6,4 km/h (2 Bft) 100 %
12.12.2016 11:30 5,1 C 5,0 C 5,1 C 92 % 1026,7 hPa 0,0 l/m 1,6 km/h (1 Bft) W 270 0 min 0,000 mm 47 W/m 3,9 C 5,1 C 8,0 km/h (2 Bft) 100 %
12.12.2016 11:40 5,0 C 5,0 C 5,1 C 92 % 1026,7 hPa 0,0 l/m 1,6 km/h (1 Bft) W 270 0 min 0,000 mm 25 W/m 3,8 C 5,0 C 8,0 km/h (2 Bft) 100 %
12.12.2016 11:50 5,0 C 5,0 C 5,0 C 92 % 1026,8 hPa 0,0 l/m 1,6 km/h (1 Bft) W-NW 292 0 min 0,000 mm 28 W/m 3,8 C 5,0 C 6,4 km/h (2 Bft) 99 %
12.12.2016 12:00 4,9 C 4,9 C 5,0 C 92 % 1026,7 hPa 0,0 l/m 0,0 km/h (0 Bft) W-SW 247 0 min 0,025 mm 30 W/m 3,7 C 4,9 C 3,2 km/h (1 Bft) 100 %
12.12.2016 12:10 4,9 C 4,9 C 4,9 C 92 % 1026,7 hPa 0,0 l/m 0,0 km/h (0 Bft) N 0 0 min 0,000 mm 33 W/m 3,7 C 4,9 C 0,0 km/h (0 Bft) 100 %
12.12.2016 12:20 4,9 C 4,9 C 4,9 C 92 % 1026,5 hPa 0,0 l/m 0,0 km/h (0 Bft) W 270 0 min 0,000 mm 39 W/m 3,7 C 4,9 C 1,6 km/h (1 Bft) 90 %
12.12.2016 12:30 4,9 C 4,9 C 4,9 C 92 % 1026,6 hPa 0,0 l/m 1,6 km/h (1 Bft) W-NW 292 0 min 0,000 mm 47 W/m 3,7 C 4,9 C 8,0 km/h (2 Bft) 100 %
12.12.2016 12:40 5,0 C 4,9 C 5,0 C 92 % 1026,5 hPa 0,0 l/m 1,6 km/h (1 Bft) W 270 0 min 0,000 mm 53 W/m 3,8 C 5,0 C 8,0 km/h (2 Bft) 99 %
12.12.2016 12:50 5,1 C 5,0 C 5,1 C 92 % 1026,5 hPa 0,0 l/m 1,6 km/h (1 Bft) W-SW 247 0 min 0,000 mm 56 W/m 3,9 C 5,1 C 9,7 km/h (2 Bft) 100 %
12.12.2016 13:00 5,2 C 5,1 C 5,2 C 92 % 1026,6 hPa 0,0 l/m 1,6 km/h (1 Bft) W-SW 247 0 min 0,025 mm 44 W/m 4,0 C 5,2 C 6,4 km/h (2 Bft) 100 %
12.12.2016 13:10 5,2 C 5,2 C 5,2 C 92 % 1026,6 hPa 0,0 l/m 1,6 km/h (1 Bft) W 270 0 min 0,000 mm 44 W/m 4,0 C 5,2 C 6,4 km/h (2 Bft) 100 %
12.12.2016 13:20 5,2 C 5,2 C 5,2 C 92 % 1026,5 hPa 0,0 l/m 1,6 km/h (1 Bft) W-SW 247 0 min 0,000 mm 63 W/m 4,0 C 5,2 C 8,0 km/h (2 Bft) 100 %
12.12.2016 13:30 5,4 C 5,2 C 5,4 C 92 % 1026,4 hPa 0,0 l/m 0,0 km/h (0 Bft) N 0 0 min 0,000 mm 81 W/m 4,2 C 5,4 C 0,0 km/h (0 Bft) 100 %
12.12.2016 13:40 5,6 C 5,4 C 5,6 C 92 % 1026,5 hPa 0,0 l/m 0,0 km/h (0 Bft) N 0 0 min 0,000 mm 83 W/m 4,4 C 5,6 C 0,0 km/h (0 Bft) 100 %
12.12.2016 13:50 5,6 C 5,6 C 5,6 C 92 % 1026,4 hPa 0,0 l/m 3,2 km/h (1 Bft) NW 315 0 min 0,000 mm 70 W/m 4,4 C 5,6 C 9,7 km/h (2 Bft) 100 %
12.12.2016 14:00 5,7 C 5,6 C 5,7 C 92 % 1026,4 hPa 0,0 l/m 1,6 km/h (1 Bft) NW 315 0 min 0,025 mm 69 W/m 4,5 C 5,7 C 6,4 km/h (2 Bft) 100 %
12.12.2016 14:10 5,7 C 5,7 C 5,7 C 92 % 1026,4 hPa 0,0 l/m 3,2 km/h (1 Bft) NW 315 0 min 0,000 mm 67 W/m 4,5 C 5,7 C 9,7 km/h (2 Bft) 100 %
12.12.2016 14:20 5,7 C 5,7 C 5,7 C 92 % 1026,4 hPa 0,0 l/m 0,0 km/h (0 Bft) NW 315 0 min 0,000 mm 70 W/m 4,5 C 5,7 C 3,2 km/h (1 Bft) 100 %
12.12.2016 14:30 5,7 C 5,6 C 5,7 C 92 % 1026,4 hPa 0,0 l/m 0,0 km/h (0 Bft) N 0 0 min 0,000 mm 70 W/m 4,5 C 5,7 C 0,0 km/h (0 Bft) 100 %
12.12.2016 14:40 5,6 C 5,6 C 5,7 C 92 % 1026,3 hPa 0,0 l/m 0,0 km/h (0 Bft) N 0 0 min 0,000 mm 46 W/m 4,4 C 5,6 C 0,0 km/h (0 Bft) 91 %
12.12.2016 14:50 5,7 C 5,6 C 5,7 C 92 % 1026,3 hPa 0,0 l/m 1,6 km/h (1 Bft) NW 315 0 min 0,000 mm 35 W/m 4,5 C 5,7 C 6,4 km/h (2 Bft) 100 %
12.12.2016 15:00 5,7 C 5,6 C 5,7 C 92 % 1026,3 hPa 0,0 l/m 0,0 km/h (0 Bft) N 0 0 min 0,025 mm 33 W/m 4,5 C 5,7 C 0,0 km/h (0 Bft) 100 %
12.12.2016 15:10 5,7 C 5,7 C 5,7 C 92 % 1026,4 hPa 0,0 l/m 0,0 km/h (0 Bft) N 0 0 min 0,000 mm 32 W/m 4,5 C 5,7 C 0,0 km/h (0 Bft) 100 %
12.12.2016 15:20 5,6 C 5,6 C 5,7 C 92 % 1026,4 hPa 0,0 l/m 0,0 km/h (0 Bft) N 0 0 min 0,000 mm 21 W/m 4,4 C 5,6 C 0,0 km/h (0 Bft) 100 %
12.12.2016 15:30 5,6 C 5,6 C 5,6 C 92 % 1026,5 hPa 0,0 l/m 0,0 km/h (0 Bft) N 0 0 min 0,000 mm 14 W/m 4,4 C 5,6 C 0,0 km/h (0 Bft) 100 %
12.12.2016 15:40 5,6 C 5,6 C 5,6 C 92 % 1026,5 hPa 0,0 l/m 0,0 km/h (0 Bft) N 0 0 min 0,000 mm 7 W/m 4,4 C 5,6 C 0,0 km/h (0 Bft) 100 %
12.12.2016 15:50 5,5 C 5,5 C 5,6 C 92 % 1026,5 hPa 0,0 l/m 0,0 km/h (0 Bft) N 0 0 min 0,000 mm 7 W/m 4,3 C 5,5 C 0,0 km/h (0 Bft) 100 %
12.12.2016 16:00 5,4 C 5,4 C 5,5 C 92 % 1026,5 hPa 0,0 l/m 0,0 km/h (0 Bft) N 0 0 min 0,000 mm 7 W/m 4,2 C 5,4 C 0,0 km/h (0 Bft) 100 %
12.12.2016 16:10 5,3 C 5,3 C 5,4 C 92 % 1026,5 hPa 0,0 l/m 0,0 km/h (0 Bft) N 0 0 min 0,000 mm 5 W/m 4,1 C 5,3 C 0,0 km/h (0 Bft) 100 %
12.12.2016 16:20 5,2 C 5,2 C 5,3 C 92 % 1026,6 hPa 0,0 l/m 0,0 km/h (0 Bft) N 0 0 min 0,000 mm 0 W/m 4,0 C 5,2 C 0,0 km/h (0 Bft) 100 %
12.12.2016 16:30 5,1 C 5,1 C 5,2 C 92 % 1026,8 hPa 0,0 l/m 0,0 km/h (0 Bft) N 0 0 min 0,000 mm 0 W/m 3,9 C 5,1 C 0,0 km/h (0 Bft) 100 %
12.12.2016 16:40 5,1 C 5,1 C 5,1 C 92 % 1026,8 hPa 0,0 l/m 0,0 km/h (0 Bft) N 0 0 min 0,000 mm 0 W/m 3,9 C 5,1 C 0,0 km/h (0 Bft) 100 %
12.12.2016 16:50 5,1 C 5,1 C 5,1 C 97 % 1026,8 hPa 0,0 l/m 0,0 km/h (0 Bft) N 0 0 min 0,000 mm 0 W/m 4,7 C 5,1 C 0,0 km/h (0 Bft) 100 %
12.12.2016 17:00 5,0 C 5,0 C 5,1 C 92 % 1026,8 hPa 0,0 l/m 0,0 km/h (0 Bft) N 0 0 min 0,000 mm 0 W/m 3,8 C 5,0 C 0,0 km/h (0 Bft) 100 %
12.12.2016 17:10 4,9 C 4,9 C 5,0 C 92 % 1026,7 hPa 0,0 l/m 0,0 km/h (0 Bft) N 0 0 min 0,000 mm 0 W/m 3,7 C 4,9 C 0,0 km/h (0 Bft) 100 %
12.12.2016 17:20 4,9 C 4,9 C 4,9 C 92 % 1026,7 hPa 0,0 l/m 0,0 km/h (0 Bft) N 0 0 min 0,000 mm 0 W/m 3,7 C 4,9 C 0,0 km/h (0 Bft) 100 %
12.12.2016 17:30 4,8 C 4,8 C 4,9 C 92 % 1026,8 hPa 0,0 l/m 0,0 km/h (0 Bft) N 0 0 min 0,000 mm 0 W/m 3,6 C 4,8 C 0,0 km/h (0 Bft) 100 %
12.12.2016 17:40 4,8 C 4,8 C 4,8 C 92 % 1026,8 hPa 0,0 l/m 0,0 km/h (0 Bft) N 0 0 min 0,000 mm 0 W/m 3,6 C 4,8 C 0,0 km/h (0 Bft) 100 %
12.12.2016 17:50 4,7 C 4,7 C 4,8 C 92 % 1026,9 hPa 0,0 l/m 0,0 km/h (0 Bft) N 0 0 min 0,000 mm 0 W/m 3,5 C 4,7 C 0,0 km/h (0 Bft) 100 %
12.12.2016 18:00 4,7 C 4,7 C 4,7 C 92 % 1027,0 hPa 0,0 l/m 0,0 km/h (0 Bft) N 0 0 min 0,000 mm 0 W/m 3,5 C 4,7 C 0,0 km/h (0 Bft) 100 %
12.12.2016 18:10 4,6 C 4,6 C 4,7 C 92 % 1027,1 hPa 0,0 l/m 0,0 km/h (0 Bft) N 0 0 min 0,000 mm 0 W/m 3,4 C 4,6 C 0,0 km/h (0 Bft) 100 %
12.12.2016 18:20 4,6 C 4,6 C 4,6 C 92 % 1027,0 hPa 0,0 l/m 0,0 km/h (0 Bft) N 0 0 min 0,000 mm 0 W/m 3,4 C 4,6 C 0,0 km/h (0 Bft) 100 %
12.12.2016 18:50 4,5 C 4,5 C 4,6 C 92 % 1027,0 hPa 0,0 l/m 0,0 km/h (0 Bft) NW 319 0 min 0,002 mm 0 W/m 3,3 C 4,5 C 0,0 km/h (0 Bft) 100 %
12.12.2016 19:00 4,5 C 4,5 C 4,6 C 92 % 1027,0 hPa 0,0 l/m 0,0 km/h (0 Bft) NW 319 0 min 0,000 mm 0 W/m 3,3 C 4,5 C 0,0 km/h (0 Bft) 100 %
12.12.2016 19:10 4,4 C 4,4 C 4,5 C 92 % 1027,0 hPa 0,0 l/m 0,0 km/h (0 Bft) NW 319 0 min 0,000 mm 0 W/m 3,2 C 4,4 C 0,0 km/h (0 Bft) 100 %
12.12.2016 19:20 4,4 C 4,4 C 4,4 C 92 % 1027,0 hPa 0,0 l/m 0,0 km/h (0 Bft) NW 319 0 min 0,000 mm 0 W/m 3,2 C 4,4 C 0,0 km/h (0 Bft) 100 %
12.12.2016 19:30 4,4 C 4,4 C 4,4 C 92 % 1026,9 hPa 0,0 l/m 0,0 km/h (0 Bft) NW 319 0 min 0,000 mm 0 W/m 3,2 C 4,4 C 0,0 km/h (0 Bft) 100 %
12.12.2016 19:40 4,3 C 4,3 C 4,4 C 92 % 1026,9 hPa 0,0 l/m 0,0 km/h (0 Bft) NW 319 0 min 0,000 mm 0 W/m 3,1 C 4,3 C 0,0 km/h (0 Bft) 100 %
12.12.2016 19:50 4,3 C 4,3 C 4,3 C 92 % 1026,9 hPa 0,0 l/m 0,0 km/h (0 Bft) NW 319 0 min 0,000 mm 0 W/m 3,1 C 4,3 C 0,0 km/h (0 Bft) 100 %
12.12.2016 20:00 4,3 C 4,3 C 4,3 C 92 % 1026,9 hPa 0,0 l/m 0,0 km/h (0 Bft) NW 319 0 min 0,000 mm 0 W/m 3,1 C 4,3 C 0,0 km/h (0 Bft) 100 %
12.12.2016 20:10 4,3 C 4,3 C 4,3 C 92 % 1027,1 hPa 0,0 l/m 0,0 km/h (0 Bft) NW 319 0 min 0,000 mm 0 W/m 3,1 C 4,3 C 0,0 km/h (0 Bft) 100 %
12.12.2016 20:20 4,2 C 4,2 C 4,3 C 92 % 1027,0 hPa 0,0 l/m 0,0 km/h (0 Bft) NW 319 0 min 0,000 mm 0 W/m 3,0 C 4,2 C 0,0 km/h (0 Bft) 100 %
12.12.2016 20:30 4,1 C 4,1 C 4,2 C 92 % 1027,1 hPa 0,0 l/m 0,0 km/h (0 Bft) NW 319 0 min 0,000 mm 0 W/m 2,9 C 4,1 C 0,0 km/h (0 Bft) 91 %
12.12.2016 20:40 4,2 C 4,1 C 4,2 C 92 % 1027,1 hPa 0,0 l/m 0,0 km/h (0 Bft) NW 319 0 min 0,000 mm 0 W/m 3,0 C 4,2 C 0,0 km/h (0 Bft) 100 %
12.12.2016 20:50 4,1 C 4,1 C 4,2 C 92 % 1027,2 hPa 0,0 l/m 0,0 km/h (0 Bft) NW 319 0 min 0,000 mm 0 W/m 2,9 C 4,1 C 0,0 km/h (0 Bft) 100 %
12.12.2016 21:00 4,2 C 4,1 C 4,2 C 92 % 1027,1 hPa 0,0 l/m 0,0 km/h (0 Bft) NW 319 0 min 0,000 mm 0 W/m 3,0 C 4,2 C 0,0 km/h (0 Bft) 100 %
12.12.2016 21:10 4,3 C 4,2 C 4,3 C 92 % 1027,1 hPa 0,0 l/m 0,0 km/h (0 Bft) N 0 0 min 0,000 mm 0 W/m 3,1 C 4,3 C 0,0 km/h (0 Bft) 100 %
12.12.2016 21:20 4,4 C 4,3 C 4,4 C 92 % 1026,9 hPa 0,0 l/m 0,0 km/h (0 Bft) N 0 0 min 0,000 mm 0 W/m 3,2 C 4,4 C 0,0 km/h (0 Bft) 100 %
12.12.2016 21:30 4,3 C 4,3 C 4,4 C 92 % 1027,1 hPa 0,0 l/m 0,0 km/h (0 Bft) NW 315 0 min 0,000 mm 0 W/m 3,1 C 4,3 C 1,6 km/h (1 Bft) 100 %
12.12.2016 21:40 3,8 C 3,8 C 4,2 C 92 % 1027,0 hPa 0,0 l/m 0,0 km/h (0 Bft) N 0 0 min 0,000 mm 0 W/m 2,6 C 3,8 C 0,0 km/h (0 Bft) 100 %
12.12.2016 21:50 3,6 C 3,6 C 3,8 C 92 % 1027,0 hPa 0,0 l/m 0,0 km/h (0 Bft) N 0 0 min 0,000 mm 0 W/m 2,4 C 3,6 C 0,0 km/h (0 Bft) 100 %
12.12.2016 22:00 3,5 C 3,5 C 3,6 C 92 % 1027,0 hPa 0,0 l/m 0,0 km/h (0 Bft) N 0 0 min 0,000 mm 0 W/m 2,3 C 3,5 C 0,0 km/h (0 Bft) 100 %
12.12.2016 22:10 3,4 C 3,4 C 3,5 C 92 % 1027,1 hPa 0,0 l/m 0,0 km/h (0 Bft) N 0 0 min 0,000 mm 0 W/m 2,2 C 3,4 C 0,0 km/h (0 Bft) 99 %
12.12.2016 22:20 3,2 C 3,2 C 3,4 C 92 % 1027,1 hPa 0,0 l/m 0,0 km/h (0 Bft) N 0 0 min 0,000 mm 0 W/m 2,0 C 3,2 C 0,0 km/h (0 Bft) 100 %
12.12.2016 22:30 3,0 C 3,0 C 3,2 C 92 % 1027,2 hPa 0,0 l/m 0,0 km/h (0 Bft) N 0 0 min 0,000 mm 0 W/m 1,8 C 3,0 C 0,0 km/h (0 Bft) 100 %
12.12.2016 22:40 2,7 C 2,7 C 3,0 C 92 % 1027,1 hPa 0,0 l/m 0,0 km/h (0 Bft) N 0 0 min 0,000 mm 0 W/m 1,5 C 2,7 C 0,0 km/h (0 Bft) 100 %
12.12.2016 22:50 2,4 C 2,4 C 2,7 C 92 % 1027,1 hPa 0,0 l/m 0,0 km/h (0 Bft) N 0 0 min 0,000 mm 0 W/m 1,2 C 2,4 C 0,0 km/h (0 Bft) 100 %
12.12.2016 23:00 1,9 C 1,9 C 2,4 C 92 % 1027,2 hPa 0,0 l/m 0,0 km/h (0 Bft) N 0 0 min 0,000 mm 0 W/m 0,7 C 1,9 C 0,0 km/h (0 Bft) 100 %
12.12.2016 23:10 1,4 C 1,4 C 1,9 C 92 % 1027,2 hPa 0,0 l/m 0,0 km/h (0 Bft) NW 315 0 min 0,000 mm 0 W/m 0,2 C 1,4 C 3,2 km/h (1 Bft) 100 %
12.12.2016 23:20 1,0 C 1,0 C 1,4 C 92 % 1027,3 hPa 0,0 l/m 0,0 km/h (0 Bft) NW 315 0 min 0,000 mm 0 W/m -0,2 C 1,0 C 1,6 km/h (1 Bft) 100 %
12.12.2016 23:30 0,8 C 0,8 C 1,0 C 92 % 1027,3 hPa 0,0 l/m 0,0 km/h (0 Bft) N 0 0 min 0,000 mm 0 W/m -0,3 C 0,8 C 0,0 km/h (0 Bft) 100 %
12.12.2016 23:40 0,6 C 0,6 C 0,8 C 92 % 1027,3 hPa 0,0 l/m 0,0 km/h (0 Bft) N 0 0 min 0,000 mm 0 W/m -0,5 C 0,6 C 0,0 km/h (0 Bft) 100 %
12.12.2016 23:50 0,5 C 0,5 C 0,6 C 92 % 1027,3 hPa 0,0 l/m 0,0 km/h (0 Bft) N 0 0 min 0,000 mm 0 W/m -0,6 C 0,5 C 0,0 km/h (0 Bft) 100 %
_ Min-Zeit 23:50 23:50 23:50 00:00 00:20 - 05:20 - - - - - 23:50 23:50 08:10 10:10
Minimum _ 0,5 C 0,5 C 0,6 C 92 % 1023,1 hPa - 0,0 km/h (0 Bft) - - - - - -0,6 C 0,5 C 0,0 km/h (0 Bft) 80 %
_ Max-Zeit 14:00 14:10 14:00 16:50 23:20 01:50 01:10 - - 00:00 11:00 13:40 16:50 14:00 02:20 00:00
Maximum _ 5,7 C 5,7 C 5,7 C 97 % 1027,3 hPa 0,2 l/m 8,0 km/h
W (2 Bft)
- - 0 min 0,025 mm 83 W/m 4,7 C 5,7 C 22,5 km/h
W (4 Bft)
100 %
Durchschnitt _ 4,4 C 4,4 C 4,5 C 92 % 1025,6 hPa #0,8 l/m 1,6 km/h (1 Bft) W - #0 min. #0,127 mm 39 W/m 3,2 C 4,4 C 6,0 km/h (2 Bft) 98 %
PRIVATE WETTERSTATION BILLIGHEIM-ALLFELD - www.neckar-odenwald-wetter.de - Holger Sonntag